Time,TemperatureF,DewpointF,PressureIn,WindDirection,WindDirectionDegrees,WindSpeedMPH,WindSpeedGustMPH,Humidity,HourlyPrecipIn,Conditions,Clouds,dailyrainin,SoftwareType,DateUTC
2013-06-23 00:08:00,83.5,67.6,29.74,WNW,292,1.6,-999.0,59,-99.99,,,0.00,Acu-Link.com,2013-06-23 05:08:00,
2013-06-23 00:23:00,83.3,67.4,29.74,SE,135,1.1,-999.0,59,-99.99,,,0.00,Acu-Link.com,2013-06-23 05:23:00,
2013-06-23 00:38:00,82.9,67.6,29.74,South,180,1.1,-999.0,60,-99.99,,,0.00,Acu-Link.com,2013-06-23 05:38:00,
2013-06-23 00:53:00,82.8,67.4,29.74,ESE,112,0.0,-999.0,60,-99.99,,,0.00,Acu-Link.com,2013-06-23 05:53:00,
2013-06-23 01:09:00,82.4,68.0,29.73,ESE,112,1.1,-999.0,62,-99.99,,,0.00,Acu-Link.com,2013-06-23 06:09:00,
2013-06-23 01:24:00,82.0,68.2,29.73,West,270,1.1,-999.0,63,-99.99,,,0.00,Acu-Link.com,2013-06-23 06:24:00,
2013-06-23 01:39:00,81.7,67.8,29.73,NNE,22,1.1,-999.0,63,-99.99,,,0.00,Acu-Link.com,2013-06-23 06:39:00,
2013-06-23 01:54:00,81.3,68.4,29.73,WSW,247,0.0,-999.0,65,-99.99,,,0.00,Acu-Link.com,2013-06-23 06:54:00,
2013-06-23 02:09:00,80.8,68.3,29.73,SSW,202,1.1,-999.0,66,-99.99,,,0.00,Acu-Link.com,2013-06-23 07:09:00,
2013-06-23 02:25:00,80.6,68.6,29.73,North,0,1.1,-999.0,67,-99.99,,,0.00,Acu-Link.com,2013-06-23 07:25:00,
2013-06-23 02:40:00,80.2,68.7,29.73,WNW,292,2.2,-999.0,68,-99.99,,,0.00,Acu-Link.com,2013-06-23 07:40:00,
2013-06-23 02:55:00,80.1,69.0,29.73,SSE,157,1.1,-999.0,69,-99.99,,,0.00,Acu-Link.com,2013-06-23 07:55:00,
2013-06-23 03:11:00,79.9,69.2,29.73,ESE,112,0.0,-999.0,70,-99.99,,,0.00,Acu-Link.com,2013-06-23 08:11:00,
2013-06-23 03:26:00,79.7,69.4,29.73,SE,135,0.0,-999.0,71,-99.99,,,0.00,Acu-Link.com,2013-06-23 08:26:00,
2013-06-23 03:41:00,79.3,69.9,29.73,SE,135,0.0,-999.0,73,-99.99,,,0.00,Acu-Link.com,2013-06-23 08:41:00,
2013-06-23 03:57:00,79.0,70.0,29.73,SSE,157,0.0,-999.0,74,-99.99,,,0.00,Acu-Link.com,2013-06-23 08:57:00,
2013-06-23 04:12:00,78.8,70.6,29.73,SSW,202,1.1,-999.0,76,-99.99,,,0.00,Acu-Link.com,2013-06-23 09:12:00,
2013-06-23 04:27:00,78.3,70.4,29.74,SE,135,1.1,-999.0,77,-99.99,,,0.00,Acu-Link.com,2013-06-23 09:27:00,
2013-06-23 04:42:00,77.9,70.5,29.74,SE,135,0.0,-999.0,78,-99.99,,,0.00,Acu-Link.com,2013-06-23 09:42:00,
2013-06-23 04:57:00,77.5,70.5,29.73,NNW,337,0.0,-999.0,79,-99.99,,,0.00,Acu-Link.com,2013-06-23 09:57:00,
2013-06-23 05:13:00,77.2,70.5,29.74,NNW,337,0.0,-999.0,80,-99.99,,,0.00,Acu-Link.com,2013-06-23 10:13:00,
2013-06-23 05:28:00,77.0,70.7,29.74,SSE,157,1.6,-999.0,81,-99.99,,,0.00,Acu-Link.com,2013-06-23 10:28:00,
2013-06-23 05:43:00,76.6,70.4,29.74,West,270,0.0,-999.0,81,-99.99,,,0.00,Acu-Link.com,2013-06-23 10:43:00,
2013-06-23 05:58:00,76.5,70.9,29.75,West,270,0.0,-999.0,83,-99.99,,,0.00,Acu-Link.com,2013-06-23 10:58:00,
2013-06-23 06:13:00,76.1,70.9,29.75,SSE,157,0.0,-999.0,84,-99.99,,,0.00,Acu-Link.com,2013-06-23 11:13:00,
2013-06-23 06:29:00,75.6,70.7,29.75,ESE,112,1.1,-999.0,85,-99.99,,,0.00,Acu-Link.com,2013-06-23 11:29:00,
2013-06-23 06:44:00,75.6,70.7,29.76,South,180,0.0,-999.0,85,-99.99,,,0.00,Acu-Link.com,2013-06-23 11:44:00,
2013-06-23 06:59:00,75.4,70.9,29.75,WSW,247,1.1,-999.0,86,-99.99,,,0.00,Acu-Link.com,2013-06-23 11:59:00,
2013-06-23 07:14:00,75.7,71.2,29.75,SE,135,0.0,-999.0,86,-99.99,,,0.00,Acu-Link.com,2013-06-23 12:14:00,
2013-06-23 07:29:00,76.3,71.4,29.76,SE,135,1.1,-999.0,85,-99.99,,,0.00,Acu-Link.com,2013-06-23 12:29:00,
2013-06-23 07:45:00,77.0,71.8,29.76,South,180,1.1,-999.0,84,-99.99,,,0.00,Acu-Link.com,2013-06-23 12:45:00,
2013-06-23 08:00:00,77.9,72.3,29.77,NNE,22,2.7,-999.0,83,-99.99,,,0.00,Acu-Link.com,2013-06-23 13:00:00,
2013-06-23 08:15:00,78.1,72.5,29.77,East,90,2.7,-999.0,83,-99.99,,,0.00,Acu-Link.com,2013-06-23 13:15:00,
2013-06-23 08:30:00,78.8,72.5,29.78,South,180,1.1,-999.0,81,-99.99,,,0.00,Acu-Link.com,2013-06-23 13:30:00,
2013-06-23 08:46:00,79.7,72.6,29.78,NNW,337,1.1,-999.0,79,-99.99,,,0.00,Acu-Link.com,2013-06-23 13:46:00,
2013-06-23 09:01:00,80.8,72.5,29.78,North,0,2.2,-999.0,76,-99.99,,,0.00,Acu-Link.com,2013-06-23 14:01:00,
2013-06-23 09:16:00,81.7,72.6,29.78,West,270,1.1,-999.0,74,-99.99,,,0.00,Acu-Link.com,2013-06-23 14:16:00,
2013-06-23 09:31:00,82.2,72.3,29.79,SSE,157,1.1,-999.0,72,-99.99,,,0.00,Acu-Link.com,2013-06-23 14:31:00,
2013-06-23 09:46:00,83.1,71.9,29.79,WSW,247,1.6,-999.0,69,-99.99,,,0.00,Acu-Link.com,2013-06-23 14:46:00,
2013-06-23 10:02:00,84.2,72.5,29.79,East,90,1.1,-999.0,68,-99.99,,,0.00,Acu-Link.com,2013-06-23 15:02:00,
2013-06-23 10:21:00,85.1,72.4,29.79,SSE,157,2.2,-999.0,66,-99.99,,,0.00,Acu-Link.com,2013-06-23 15:21:00,
2013-06-23 10:37:00,85.6,72.5,29.79,ESE,112,2.2,-999.0,65,-99.99,,,0.00,Acu-Link.com,2013-06-23 15:37:00,
2013-06-23 10:52:00,86.7,73.1,29.79,SSE,157,1.1,-999.0,64,-99.99,,,0.00,Acu-Link.com,2013-06-23 15:52:00,
2013-06-23 11:07:00,86.0,72.4,29.80,WSW,247,1.1,-999.0,64,-99.99,,,0.00,Acu-Link.com,2013-06-23 16:07:00,
2013-06-23 11:22:00,88.2,72.5,29.80,West,270,2.2,-999.0,60,-99.99,,,0.00,Acu-Link.com,2013-06-23 16:22:00,
2013-06-23 11:37:00,87.3,71.6,29.80,SSE,157,2.7,-999.0,60,-99.99,,,0.00,Acu-Link.com,2013-06-23 16:37:00,
2013-06-23 11:53:00,88.0,72.3,29.79,SSE,157,1.6,-999.0,60,-99.99,,,0.00,Acu-Link.com,2013-06-23 16:53:00,
2013-06-23 12:08:00,88.9,71.6,29.78,NE,45,2.7,-999.0,57,-99.99,,,0.00,Acu-Link.com,2013-06-23 17:08:00,
2013-06-23 12:23:00,88.9,72.2,29.77,NNW,337,1.1,-999.0,58,-99.99,,,0.00,Acu-Link.com,2013-06-23 17:23:00,
2013-06-23 12:38:00,89.2,70.9,29.77,South,180,1.1,-999.0,55,-99.99,,,0.00,Acu-Link.com,2013-06-23 17:38:00,
2013-06-23 12:54:00,90.0,71.0,29.76,SSW,202,2.2,-999.0,54,-99.99,,,0.00,Acu-Link.com,2013-06-23 17:54:00,
2013-06-23 13:09:00,90.5,71.0,29.76,North,0,2.7,-999.0,53,-99.99,,,0.00,Acu-Link.com,2013-06-23 18:09:00,
2013-06-23 13:24:00,90.9,71.3,29.75,SSE,157,1.6,-999.0,53,-99.99,,,0.00,Acu-Link.com,2013-06-23 18:24:00,
2013-06-23 13:39:00,91.9,71.8,29.75,SW,225,2.7,-999.0,52,-99.99,,,0.00,Acu-Link.com,2013-06-23 18:39:00,
2013-06-23 13:54:00,92.3,72.1,29.74,East,90,2.2,-999.0,52,-99.99,,,0.00,Acu-Link.com,2013-06-23 18:54:00,
2013-06-23 14:10:00,92.7,70.1,29.74,NW,315,2.7,-999.0,48,-99.99,,,0.00,Acu-Link.com,2013-06-23 19:10:00,
2013-06-23 14:25:00,92.8,70.2,29.73,SE,135,1.6,-999.0,48,-99.99,,,0.00,Acu-Link.com,2013-06-23 19:25:00,
2013-06-23 14:40:00,93.2,69.9,29.74,East,90,2.7,-999.0,47,-99.99,,,0.00,Acu-Link.com,2013-06-23 19:40:00,
2013-06-23 14:55:00,93.4,70.7,29.73,SSW,202,1.6,-999.0,48,-99.99,,,0.00,Acu-Link.com,2013-06-23 19:55:00,
2013-06-23 15:10:00,93.7,70.4,29.72,WSW,247,1.6,-999.0,47,-99.99,,,0.00,Acu-Link.com,2013-06-23 20:10:00,
2013-06-23 15:26:00,94.1,70.1,29.72,SSE,157,1.6,-999.0,46,-99.99,,,0.00,Acu-Link.com,2013-06-23 20:26:00,
2013-06-23 15:41:00,94.3,69.0,29.71,South,180,2.7,-999.0,44,-99.99,,,0.00,Acu-Link.com,2013-06-23 20:41:00,
2013-06-23 15:56:00,94.5,71.1,29.71,South,180,0.0,-999.0,47,-99.99,,,0.00,Acu-Link.com,2013-06-23 20:56:00,
2013-06-23 16:11:00,94.3,69.0,29.71,SE,135,3.1,-999.0,44,-99.99,,,0.00,Acu-Link.com,2013-06-23 21:11:00,
2013-06-23 16:26:00,94.3,68.3,29.71,East,90,1.6,-999.0,43,-99.99,,,0.00,Acu-Link.com,2013-06-23 21:26:00,
2013-06-23 16:42:00,93.9,68.0,29.70,ESE,112,2.7,-999.0,43,-99.99,,,0.00,Acu-Link.com,2013-06-23 21:42:00,
2013-06-23 16:57:00,93.9,69.3,29.70,South,180,0.0,-999.0,45,-99.99,,,0.00,Acu-Link.com,2013-06-23 21:57:00,
2013-06-23 17:12:00,93.4,68.2,29.70,ESE,112,1.6,-999.0,44,-99.99,,,0.00,Acu-Link.com,2013-06-23 22:12:00,
2013-06-23 17:27:00,93.4,68.2,29.70,SW,225,1.1,-999.0,44,-99.99,,,0.00,Acu-Link.com,2013-06-23 22:27:00,
2013-06-23 17:43:00,92.8,68.3,29.69,West,270,2.2,-999.0,45,-99.99,,,0.00,Acu-Link.com,2013-06-23 22:43:00,
2013-06-23 17:58:00,93.0,68.5,29.69,SSE,157,1.1,-999.0,45,-99.99,,,0.00,Acu-Link.com,2013-06-23 22:58:00,
2013-06-23 18:13:00,94.1,68.8,29.69,SW,225,2.2,-999.0,44,-99.99,,,0.00,Acu-Link.com,2013-06-23 23:13:00,
2013-06-23 18:28:00,95.2,67.7,29.68,SSW,202,1.1,-999.0,41,-99.99,,,0.00,Acu-Link.com,2013-06-23 23:28:00,
2013-06-23 18:43:00,95.4,68.6,29.68,NNE,22,1.1,-999.0,42,-99.99,,,0.00,Acu-Link.com,2013-06-23 23:43:00,
2013-06-23 18:59:00,93.9,67.3,29.69,South,180,2.7,-999.0,42,-99.99,,,0.00,Acu-Link.com,2013-06-23 23:59:00,
2013-06-23 19:14:00,94.1,68.1,29.68,SE,135,1.1,-999.0,43,-99.99,,,0.00,Acu-Link.com,2013-06-24 00:14:00,
2013-06-23 19:29:00,93.0,67.2,29.69,SE,135,1.1,-999.0,43,-99.99,,,0.00,Acu-Link.com,2013-06-24 00:29:00,
2013-06-23 19:44:00,92.7,66.8,29.69,SSE,157,1.1,-999.0,43,-99.99,,,0.00,Acu-Link.com,2013-06-24 00:44:00,
2013-06-23 19:59:00,91.6,67.2,29.68,East,90,0.0,-999.0,45,-99.99,,,0.00,Acu-Link.com,2013-06-24 00:59:00,
2013-06-23 20:15:00,91.0,66.7,29.69,SE,135,1.1,-999.0,45,-99.99,,,0.00,Acu-Link.com,2013-06-24 01:15:00,
2013-06-23 20:30:00,90.3,66.7,29.68,SE,135,0.0,-999.0,46,-99.99,,,0.00,Acu-Link.com,2013-06-24 01:30:00,
2013-06-23 20:45:00,89.4,67.1,29.69,SSW,202,0.0,-999.0,48,-99.99,,,0.00,Acu-Link.com,2013-06-24 01:45:00,
2013-06-23 21:00:00,88.7,66.4,29.69,East,90,0.0,-999.0,48,-99.99,,,0.00,Acu-Link.com,2013-06-24 02:00:00,
2013-06-23 21:15:00,87.8,66.2,29.69,SW,225,0.0,-999.0,49,-99.99,,,0.00,Acu-Link.com,2013-06-24 02:15:00,
2013-06-23 21:31:00,87.4,65.9,29.70,SSE,157,0.0,-999.0,49,-99.99,,,0.00,Acu-Link.com,2013-06-24 02:31:00,
2013-06-23 21:46:00,87.1,66.2,29.70,SSE,157,2.2,-999.0,50,-99.99,,,0.00,Acu-Link.com,2013-06-24 02:46:00,
2013-06-23 22:01:00,86.5,66.8,29.71,SSE,157,1.1,-999.0,52,-99.99,,,0.00,Acu-Link.com,2013-06-24 03:01:00,
2013-06-23 22:16:00,86.4,67.2,29.72,SSE,157,1.1,-999.0,53,-99.99,,,0.00,Acu-Link.com,2013-06-24 03:16:00,
2013-06-23 22:32:00,85.6,67.6,29.73,South,180,1.1,-999.0,55,-99.99,,,0.00,Acu-Link.com,2013-06-24 03:32:00,
2013-06-23 22:47:00,85.3,68.3,29.74,SE,135,1.1,-999.0,57,-99.99,,,0.00,Acu-Link.com,2013-06-24 03:47:00,
2013-06-23 23:02:00,84.7,68.3,29.74,SW,225,0.0,-999.0,58,-99.99,,,0.00,Acu-Link.com,2013-06-24 04:02:00,
2013-06-23 23:17:00,84.2,68.8,29.74,South,180,0.0,-999.0,60,-99.99,,,0.00,Acu-Link.com,2013-06-24 04:17:00,
2013-06-23 23:32:00,83.8,69.4,29.74,SSE,157,0.0,-999.0,62,-99.99,,,0.00,Acu-Link.com,2013-06-24 04:32:00,
2013-06-23 23:48:00,83.5,69.1,29.74,WSW,247,0.0,-999.0,62,-99.99,,,0.00,Acu-Link.com,2013-06-24 04:48:00,